Sergeant Bluff, IA

4:10 AM CDT on September 25, 2016 (GMT -0500)
Sioux Gateway

Weather History for KSUX - August, 2013

Change the Weather History Date:

Wednesday, August 14, 2013

  Actual Average Record
Temperature  
Mean Temperature 62 °F 73 °F  
Max Temperature 69 °F 84 °F 100 °F (1988)
Min Temperature 55 °F 62 °F 43 °F (2004)
Degree Days  
Heating Degree Days 3 0  
Month to date heating degree days 3 0  
Since 1 June heating degree days 58 30  
Since 1 July heating degree days 18 3  
Cooling Degree Days 0 8  
Month to date cooling degree days 63 119  
Year to date cooling degree days 600 664  
Since 1 June cooling degree days 544 600  
Growing Degree Days 12 (Base 50)    
Moisture  
Dew Point 58 °F    
Average Humidity 82    
Maximum Humidity 93    
Minimum Humidity 62    
Precipitation  
Precipitation 0.21 in 0.11 in 2.62 in (1951)
Month to date precipitation 1.29 1.43  
Year to date precipitation 18.35 18.74  
Snow  
Snow 0.00 in 0.00 in 0.00 in ()
Month to date snowfall 0.0 0.0  
Since 1 June snowfall 0.0 0.0  
Since 1 July snowfall 0.0 0.0  
Snow Depth 0.00 in    
Sea Level Pressure  
Sea Level Pressure 30.16 in    
Wind  
Wind Speed 6 mph (ESE)    
Max Wind Speed 12 mph    
Max Gust Speed 13 mph    
Visibility 9 miles    
Events Rain    
T = Trace of Precipitation, MM = Missing Value Source: NWS Daily Summary

Daily Weather History Graph

Daily Weather History Graph

Search for Another Location

Airport or City:

Trip Planner

Search our weather history database for the weather conditions in past years. The results will help you decide how hot, cold, wet, or windy it might be!

Date:

Astronomy

Aug. 14, 2013 Rise Set
Actual Time 6:31 AM CDT 8:27 PM CDT
Civil Twilight 6:01 AM CDT 8:57 PM CDT
Nautical Twilight 5:24 AM CDT 9:34 PM CDT
Astronomical Twilight 4:43 AM CDT 10:14 PM CDT
Moon 2:42 PM CDT (8/14) No Moon Set
Length of Visible Light 14h 56m
Length of Day
13h 55m
First Quarter, 53% of the Moon is Illuminated
Aug 14
First Quarter
Aug 20
Full
Aug 28
Last Quarter
Sep 5
New
Sep 12
First Quarter

Hourly Weather History & Observations

Time (CDT) Temp. Dew Point Humidity Pressure Visibility Wind Dir Wind Speed Gust Speed Precip Events Conditions
12:52 AM 59.0 °F 53.1 °F 81% 30.18 in 10.0 mi Calm Calm - N/A   Clear
1:52 AM 60.1 °F 53.1 °F 78% 30.18 in 10.0 mi East 6.9 mph - N/A   Clear
2:52 AM 57.9 °F 52.0 °F 81% 30.18 in 10.0 mi East 6.9 mph - N/A   Clear
3:52 AM 55.9 °F 52.0 °F 87% 30.17 in 10.0 mi ESE 5.8 mph - N/A   Partly Cloudy
4:52 AM 55.9 °F 52.0 °F 87% 30.17 in 10.0 mi ESE 5.8 mph - N/A   Mostly Cloudy
5:52 AM 55.0 °F 52.0 °F 89% 30.18 in 10.0 mi ESE 4.6 mph - N/A   Mostly Cloudy
6:52 AM 55.0 °F 52.0 °F 89% 30.19 in 10.0 mi ESE 4.6 mph - N/A   Clear
7:52 AM 57.0 °F 53.1 °F 87% 30.18 in 10.0 mi ESE 6.9 mph - N/A   Clear
8:52 AM 60.1 °F 54.0 °F 80% 30.19 in 9.0 mi SSE 5.8 mph - N/A   Clear
9:52 AM 64.0 °F 55.9 °F 75% 30.19 in 10.0 mi SE 6.9 mph - N/A   Clear
10:52 AM 66.0 °F 57.9 °F 75% 30.19 in 10.0 mi SE 9.2 mph - N/A   Clear
11:52 AM 68.0 °F 59.0 °F 73% 30.19 in 10.0 mi SSE 5.8 mph - N/A   Clear
12:52 PM 69.1 °F 59.0 °F 70% 30.17 in 10.0 mi SE 8.1 mph - N/A   Clear
1:52 PM 68.0 °F 61.0 °F 78% 30.17 in 10.0 mi SSE 6.9 mph - 0.00 in   Overcast
2:52 PM 68.0 °F 61.0 °F 78% 30.17 in 10.0 mi SSE 4.6 mph - 0.00 in   Overcast
3:52 PM 68.0 °F 63.0 °F 84% 30.15 in 10.0 mi SSE 4.6 mph - 0.01 in Rain Light Rain
4:52 PM 69.1 °F 62.1 °F 78% 30.13 in 10.0 mi ESE 4.6 mph - 0.00 in   Overcast
5:52 PM 69.1 °F 63.0 °F 81% 30.13 in 10.0 mi ESE 3.5 mph - 0.00 in Rain Light Rain
6:52 PM 68.0 °F 64.0 °F 87% 30.11 in 7.0 mi ESE 3.5 mph - 0.00 in Rain Light Rain
7:52 PM 66.9 °F 64.9 °F 93% 30.11 in 5.0 mi Calm Calm - 0.03 in Rain Light Rain
8:52 PM 64.9 °F 63.0 °F 93% 30.10 in 7.0 mi ESE 5.8 mph - 0.07 in Rain Light Rain
9:52 PM 64.9 °F 63.0 °F 93% 30.11 in 9.0 mi ENE 4.6 mph - 0.02 in Rain Light Rain
10:52 PM 64.0 °F 62.1 °F 93% 30.11 in 10.0 mi ESE 8.1 mph - 0.05 in Rain Light Rain
11:52 PM 63.0 °F 60.1 °F 90% 30.12 in 8.0 mi East 6.9 mph - 0.01 in Rain Light Rain